CZ-4 DEB

Satellite information

Favourite Embed

Satellite Type and Status

DEBRISIN ORBIT

Key statistics

Satellite CZ-4 DEB at a glance.

Uptime

7984

Days in orbit

Revolutions

≈ 13.9

Per day

Orbit

SSO

Sun Synchronous Orbit

Inclination

98.8

Latest

Satellite identification and parameters

Extended collection of information and parameters for CZ-4 DEB.

Object identification

Identified? True

Debris? True

Object name: CZ-4 DEB

International designator: 2003-049F

Object number (NORAD): 35379

Object ID (CCSDS): 35379

Country: PEOPLES REPUBLIC OF CHINA (PRC)

Current information (Y/N): Y

RCS size: SMALL

Orbital parameters

Period: 103.535 minutes

Inclination: 98.8035 deg

SMA: 7303.842 km

Apoapsis: 1052.628 km

Periapsis: 798.786 km

RAAN: 87.4503 deg

Eccentricy: 0.0173773

Argument of periapsis: 333.2626 deg

Mean anomaly: 209.0327 deg

Mean motion: 13.90835361 rev/day

Mean motion (dot): 0.00000379 rev/day2

B* drag term: 0.00029803403 1/REarth

Two-line elements (TLE)

Creation date: Aug. 27, 2025, 8:01 p.m.

Reference frame: TEME

Reference center: EARTH

Epoch: Aug. 27, 2025, 8:27 a.m. UTC

TLE line 0: 0 CZ-4 DEB

TLE line 1: 1 35379U 03049F 25239.35216818 .00000379 00000-0 29803-3 0 9992

TLE line 2: 2 35379 98.8035 87.4503 0173773 333.2626 209.0327 13.90835361 85221

Live tracking on map

Real-time ground track for satellite CZ-4 DEB.

In-orbit conjunctions

A list of the most updated potential collisions computed for object CZ-4 DEB.

Target Orbit TCA Probability of collision Miss distance Type
DIADEME 1 LEO 2025-06-13 05:45:20 0.0001326803 852.0 (m) PAYLOAD
COSMOS 2237 LEO 2025-04-02 23:59:23 0.001356946 135.0 (m) PAYLOAD
CZ-6A DEB LEO 2024-10-24 09:50:37 0.0001331148 134.0 (m) DEBRIS

Associated space launch

The satellite is China's first operational civilian remote-sensing satellite, specifically designed for the Chinese Ministry of Land and Resources (MLR).

CZ-4 DEB was lifted into orbit during the mission ‘Long March 4B | Zi Yuan 1-2’, on board a Long March 4B space rocket.

The launch took place on Oct. 21, 2003, 3:16 a.m. from Launch Complex 7.

For more information about the launch, click the button.

Launch to space Long March 4B | Zi Yuan 1-2
Long March 4B | Zi Yuan 1-2

Agency: N/A

Status: Launch Successful

Launch date: Oct. 21, 2003, 3:16 a.m. UTC

Rocket: Long March 4B

Launch pad: Launch Complex 7

Location: Taiyuan Satellite Launch Center, People's Republic of China

...

Latest news about this satellite

There are no fresh news available about this satellite. Check back as we update our databases every day.


Newsletter sign-up

Weekly statistics, charts and insights to help you stay on top of the space industry.